This is the latest recevied weather packets stored in our database for station/object DL6DJ-15. If no packets are shown the sender has not sent any weather packets the latest 10 day(s).
| Time | Temp. | Humidity | Pressure | Rain* | Wind** | Luminosity | Snow |
|---|---|---|---|---|---|---|---|
| 1777746341 | 16.67° C | 43% | 1018.7 hPa | - | - | - | - |
| 1777746041 | 17.78° C | 43% | 1018.7 hPa | - | - | - | - |
| 1777745740 | 17.78° C | 41% | 1018.7 hPa | - | - | - | - |
| 1777745440 | 18.33° C | 42% | 1018.6 hPa | - | - | - | - |
| 1777745139 | 18.89° C | 40% | 1018.6 hPa | - | - | - | - |
| 1777744839 | 19.44° C | 40% | 1018.6 hPa | - | - | - | - |
| 1777744539 | 20° C | 37% | 1018.7 hPa | - | - | - | - |
| 1777744238 | 21.11° C | 32% | 1018.7 hPa | - | - | - | - |
| 1777743938 | 21.11° C | 31% | 1018.7 hPa | - | - | - | - |
| 1777743638 | 21.67° C | 30% | 1018.7 hPa | - | - | - | - |
| 1777743337 | 21.67° C | 28% | 1018.8 hPa | - | - | - | - |
| 1777743037 | 22.22° C | 29% | 1018.9 hPa | - | - | - | - |
| 1777742736 | 22.22° C | 27% | 1018.9 hPa | - | - | - | - |
| 1777742436 | 22.22° C | 28% | 1018.9 hPa | - | - | - | - |
| 1777742135 | 22.78° C | 27% | 1018.9 hPa | - | - | - | - |
| 1777741835 | 22.78° C | 26% | 1019 hPa | - | - | - | - |
| 1777741534 | 23.33° C | 25% | 1018.9 hPa | - | - | - | - |
| 1777741234 | 23.33° C | 25% | 1019 hPa | - | - | - | - |
| 1777740934 | 23.33° C | 22% | 1019 hPa | - | - | - | - |
| 1777740633 | 23.33° C | 22% | 1019 hPa | - | - | - | - |
| 1777740333 | 23.33° C | 22% | 1019 hPa | - | - | - | - |
| 1777740033 | 23.89° C | 20% | 1019 hPa | - | - | - | - |
| 1777739732 | 23.89° C | 20% | 1019.1 hPa | - | - | - | - |
| 1777739432 | 23.89° C | 21% | 1019.2 hPa | - | - | - | - |
| 1777739132 | 23.89° C | 21% | 1019.2 hPa | - | - | - | - |
* Rain since midnight (hover to see other rain measurements)
** Current wind speed in m/s (hover to see current wind gust speed)